QPF
0.03 0.04 0.04 0.05 0.06 0.09 0.07 0.04 0.04 0.06 0.07 0.06 0.06 0.08 0.10 0.10 0.08 0.07 0.07 0.08 0.07 0.04 0.03 0.03 0.04 0.03 0.04 0.05 0.05 0.04 0.02 0.02 0.02 0.02 0.02 0.02 0.03 0.03 0.03 0.04 0.05 0.11 0.12
0.03 0.04 0.05 0.05 0.06 0.08 0.08 0.06 0.04 0.04 0.04 0.06 0.05 0.06 0.13 0.15 0.10 0.07 0.09 0.08 0.07 0.06 0.04 0.03 0.04 0.04 0.05 0.06 0.05 0.03 0.02 0.02 0.02 0.03 0.02 0.02 0.02 0.04 0.03 0.03 0.05 0.10 0.14
0.03 0.06 0.05 0.05 0.06 0.08 0.08 0.08 0.06 0.05 0.07 0.06 0.06 0.06 0.06 0.07 0.04 0.02 0.04 0.06 0.08 0.10 0.07 0.07 0.08 0.06 0.05 0.06 0.04 0.02 0.02 0.02 0.02 0.02 0.01 0.01 0.01 0.02 0.04 0.04 0.04 0.08 0.11
0.03 0.04 0.02 0.03 0.05 0.07 0.06 0.07 0.06 0.04 0.04 0.06 0.07 0.07 0.06 0.04 0.03 0.03 0.03 0.03 0.05 0.07 0.08 0.08 0.08 0.06 0.05 0.04 0.03 0.02 0.01 0.01 0.01 0.01 0.01 0.01 0.01 0.01 0.03 0.05 0.05 0.07 0.07
0.03 0.02 0.03 0.04 0.06 0.08 0.05 0.06 0.06 0.06 0.06 0.07 0.08 0.07 0.05 0.03 0.03 0.02 0.02 0.01 0.02 0.03 0.05 0.06 0.07 0.05 0.04 0.03 0.02 0.01 0.02 0.02 0.01 0.01 0.01 0.01 0.01 0.01 0.02 0.04 0.06 0.08 0.07
0.04 0.03 0.05 0.07 0.13 0.11 0.08 0.07 0.07 0.09 0.09 0.08 0.07 0.06 0.04 0.03 0.02 0.02 0.01 0.01 0.01 0.02 0.03 0.04 0.05 0.04 0.03 0.03 0.02 0.02 0.02 0.02 0.02 0.01 0.01 0.02 0.01 0.01 0.02 0.03 0.04 0.07 0.08
0.03 0.03 0.05 0.07 0.09 0.09 0.09 0.08 0.08 0.10 0.10 0.09 0.07 0.06 0.04 0.03 0.01 0.01 0.02 0.02 0.02 0.03 0.03 0.04 0.03 0.04 0.04 0.03 0.02 0.01 0.01 0.02 0.02 0.02 0.03 0.02 0.01 0.01 0.02 0.03 0.04 0.05 0.05
0.02 0.03 0.05 0.05 0.06 0.08 0.08 0.08 0.07 0.08 0.08 0.06 0.04 0.04 0.03 0.02 0.02 0.01 0.01 0.02 0.02 0.02 0.03 0.03 0.03 0.03 0.03 0.03 0.03 0.02 0.02 0.02 0.02 0.03 0.03 0.03 0.02 0.02 0.03 0.02 0.03 0.03 0.03
0.02 0.03 0.04 0.05 0.05 0.06 0.07 0.07 0.07 0.07 0.07 0.05 0.04 0.04 0.03 0.02 0.02 0.03 0.03 0.02 0.02 0.02 0.01 0.02 0.02 0.02 0.02 0.02 0.02 0.02 0.02 0.02 0.02 0.02 0.02 0.03 0.03 0.03 0.03 0.03 0.03 0.03 0.03
0.02 0.02 0.02 0.03 0.03 0.04 0.05 0.05 0.07 0.07 0.07 0.07 0.05 0.06 0.06 0.05 0.04 0.04 0.04 0.03 0.03 0.02 0.01 0.01 0.02 0.02 0.02 0.02 0.02 0.02 0.02 0.02 0.02 0.02 0.03 0.03 0.04 0.04 0.03 0.03 0.03 0.03 0.03
0.02 0.02 0.02 0.02 0.03 0.03 0.03 0.04 0.05 0.06 0.06 0.07 0.06 0.06 0.05 0.06 0.06 0.06 0.08 0.06 0.03 0.02 0.01 0.01 0.02 0.02 0.02 0.02 0.02 0.02 0.02 0.02 0.02 0.03 0.04 0.04 0.03 0.03 0.03 0.03 0.03 0.02 0.02
0.03 0.03 0.02 0.01 0.02 0.02 0.02 0.03 0.03 0.03 0.04 0.05 0.05 0.05 0.05 0.05 0.04 0.04 0.04 0.04 0.04 0.03 0.03 0.03 0.03 0.03 0.03 0.02 0.02 0.02 0.02 0.02 0.02 0.03 0.04 0.04 0.04 0.03 0.03 0.02 0.01 0.01 0.01
0.02 0.03 0.03 0.03 0.02 0.02 0.02 0.03 0.04 0.05 0.06 0.05 0.04 0.04 0.04 0.03 0.03 0.03 0.03 0.03 0.04 0.05 0.05 0.04 0.04 0.03 0.03 0.03 0.03 0.03 0.03 0.03 0.02 0.04 0.05 0.04 0.03 0.02 0.01 0.01 0.01 0.00 0.00
0.02 0.02 0.03 0.03 0.02 0.02 0.03 0.03 0.04 0.04 0.06 0.07 0.07 0.05 0.04 0.03 0.03 0.03 0.03 0.02 0.02 0.03 0.03 0.03 0.03 0.03 0.02 0.02 0.02 0.02 0.02 0.01 0.02 0.03 0.04 0.03 0.02 0.01 0.01 0.01 0.01 0.01 0.00
0.02 0.02 0.02 0.02 0.03 0.03 0.02 0.02 0.04 0.04 0.04 0.05 0.07 0.07 0.05 0.03 0.02 0.02 0.03 0.03 0.03 0.02 0.03 0.04 0.04 0.03 0.03 0.03 0.02 0.02 0.02 0.02 0.02 0.02 0.02 0.02 0.02 0.02 0.02 0.02 0.01 0.01 0.00
0.03 0.03 0.02 0.03 0.03 0.03 0.03 0.02 0.03 0.03 0.02 0.03 0.03 0.04 0.05 0.04 0.03 0.03 0.03 0.04 0.04 0.05 0.04 0.04 0.03 0.02 0.03 0.04 0.04 0.02 0.02 0.02 0.02 0.02 0.02 0.02 0.01 0.01 0.02 0.02 0.01 0.01 0.01
0.05 0.04 0.02 0.02 0.02 0.03 0.03 0.03 0.02 0.02 0.02 0.02 0.02 0.02 0.03 0.04 0.03 0.03 0.02 0.03 0.04 0.05 0.05 0.05 0.05 0.04 0.03 0.03 0.03 0.03 0.02 0.01 0.01 0.01 0.02 0.02 0.01 0.01 0.02 0.02 0.01 0.01 0.01
0.06 0.05 0.03 0.03 0.03 0.03 0.03 0.02 0.01 0.01 0.01 0.01 0.01 0.02 0.02 0.02 0.02 0.02 0.02 0.03 0.03 0.04 0.04 0.05 0.06 0.05 0.04 0.04 0.04 0.04 0.04 0.04 0.03 0.02 0.02 0.01 0.01 0.01 0.01 0.02 0.02 0.02 0.01
0.06 0.08 0.07 0.05 0.04 0.03 0.02 0.02 0.02 0.02 0.02 0.02 0.02 0.01 0.02 0.02 0.02 0.01 0.02 0.02 0.03 0.04 0.04 0.04 0.04 0.04 0.05 0.06 0.05 0.05 0.05 0.05 0.05 0.04 0.03 0.02 0.02 0.01 0.01 0.03 0.03 0.02 0.02
0.05 0.08 0.09 0.08 0.06 0.03 0.02 0.02 0.02 0.02 0.02 0.02 0.02 0.02 0.01 0.01 0.01 0.01 0.02 0.02 0.03 0.04 0.04 0.04 0.05 0.05 0.05 0.06 0.06 0.06 0.05 0.04 0.04 0.04 0.03 0.03 0.02 0.01 0.02 0.03 0.04 0.03 0.02
0.05 0.07 0.07 0.09 0.07 0.05 0.03 0.02 0.02 0.02 0.02 0.02 0.02 0.02 0.02 0.01 0.01 0.02 0.03 0.03 0.03 0.04 0.04 0.04 0.05 0.05 0.05 0.05 0.05 0.07 0.05 0.04 0.04 0.03 0.03 0.03 0.02 0.02 0.02 0.03 0.05 0.04 0.03
0.05 0.06 0.07 0.08 0.06 0.05 0.03 0.02 0.02 0.02 0.02 0.03 0.03 0.02 0.01 0.01 0.01 0.01 0.02 0.03 0.04 0.04 0.04 0.04 0.04 0.04 0.04 0.04 0.04 0.07 0.08 0.08 0.06 0.04 0.03 0.03 0.03 0.03 0.03 0.03 0.03 0.02 0.02
0.06 0.06 0.07 0.07 0.06 0.04 0.03 0.02 0.02 0.02 0.02 0.02 0.03 0.02 0.01 0.01 0.01 0.01 0.03 0.04 0.04 0.04 0.04 0.04 0.04 0.05 0.06 0.06 0.07 0.07 0.07 0.07 0.06 0.05 0.04 0.04 0.04 0.04 0.03 0.03 0.03 0.02 0.01
0.06 0.05 0.05 0.06 0.05 0.03 0.02 0.02 0.02 0.01 0.02 0.02 0.02 0.02 0.01 0.01 0.01 0.01 0.02 0.06 0.07 0.07 0.07 0.06 0.06 0.06 0.07 0.07 0.07 0.05 0.04 0.04 0.04 0.03 0.03 0.03 0.03 0.04 0.03 0.03 0.02 0.02 0.02
0.06 0.05 0.05 0.05 0.05 0.03 0.03 0.02 0.01 0.01 0.01 0.02 0.01 0.01 0.01 0.01 0.01 0.02 0.03 0.07 0.10 0.13 0.11 0.10 0.10 0.08 0.05 0.05 0.06 0.05 0.03 0.03 0.04 0.04 0.03 0.02 0.02 0.02 0.03 0.02 0.02 0.02 0.01
0.06 0.07 0.06 0.05 0.05 0.04 0.04 0.03 0.02 0.02 0.02 0.02 0.01 0.01 0.01 0.01 0.01 0.02 0.04 0.06 0.08 0.10 0.10 0.09 0.07 0.06 0.06 0.05 0.05 0.04 0.03 0.04 0.04 0.04 0.02 0.02 0.02 0.02 0.02 0.02 0.02 0.02 0.01
MSLP
1007.05 1006.44 1005.89 1005.46 1005.19 1005.13 1005.32 1005.74 1006.39 1007.20 1008.09 1008.98 1009.81 1010.51 1011.06 1011.47 1011.76 1011.99 1012.21 1012.47 1012.79 1013.18 1013.64 1014.12 1014.61 1015.06 1015.46 1015.80 1016.08 1016.32 1016.54 1016.74 1016.95 1017.14 1017.30 1017.43 1017.49 1017.48 1017.40 1017.26 1017.08 1016.90 1016.74
1006.99 1006.40 1005.82 1005.29 1004.89 1004.66 1004.67 1004.95 1005.49 1006.25 1007.15 1008.10 1009.02 1009.83 1010.48 1010.97 1011.32 1011.57 1011.80 1012.05 1012.37 1012.77 1013.25 1013.78 1014.33 1014.84 1015.30 1015.68 1015.99 1016.25 1016.47 1016.66 1016.87 1017.07 1017.26 1017.42 1017.53 1017.58 1017.54 1017.44 1017.28 1017.10 1016.92
1006.67 1006.14 1005.57 1005.00 1004.50 1004.15 1004.01 1004.13 1004.55 1005.23 1006.11 1007.09 1008.07 1008.97 1009.72 1010.30 1010.72 1011.02 1011.27 1011.53 1011.86 1012.27 1012.78 1013.35 1013.94 1014.51 1015.03 1015.46 1015.81 1016.09 1016.32 1016.53 1016.74 1016.96 1017.18 1017.38 1017.55 1017.65 1017.67 1017.62 1017.49 1017.33 1017.15
1006.09 1005.65 1005.14 1004.58 1004.04 1003.59 1003.32 1003.30 1003.59 1004.17 1004.99 1005.95 1006.97 1007.93 1008.78 1009.45 1009.95 1010.32 1010.62 1010.91 1011.26 1011.69 1012.21 1012.81 1013.44 1014.06 1014.63 1015.12 1015.52 1015.84 1016.10 1016.34 1016.58 1016.82 1017.07 1017.31 1017.52 1017.68 1017.76 1017.76 1017.67 1017.53 1017.35
1005.33 1005.02 1004.60 1004.10 1003.54 1003.03 1002.66 1002.51 1002.66 1003.11 1003.83 1004.75 1005.76 1006.77 1007.68 1008.45 1009.04 1009.50 1009.87 1010.21 1010.59 1011.03 1011.58 1012.19 1012.85 1013.52 1014.13 1014.67 1015.13 1015.50 1015.81 1016.09 1016.35 1016.62 1016.90 1017.18 1017.43 1017.63 1017.76 1017.80 1017.76 1017.64 1017.47
1004.51 1004.34 1004.05 1003.62 1003.10 1002.55 1002.08 1001.80 1001.80 1002.10 1002.70 1003.53 1004.51 1005.53 1006.50 1007.34 1008.04 1008.59 1009.04 1009.45 1009.87 1010.35 1010.91 1011.53 1012.21 1012.90 1013.55 1014.14 1014.65 1015.08 1015.44 1015.76 1016.06 1016.36 1016.66 1016.96 1017.24 1017.47 1017.64 1017.72 1017.71 1017.62 1017.46
1003.73 1003.71 1003.56 1003.23 1002.74 1002.18 1001.64 1001.23 1001.07 1001.21 1001.66 1002.38 1003.29 1004.29 1005.29 1006.21 1007.01 1007.66 1008.21 1008.70 1009.17 1009.68 1010.24 1010.88 1011.55 1012.24 1012.92 1013.54 1014.09 1014.57 1014.98 1015.34 1015.68 1016.00 1016.32 1016.63 1016.92 1017.17 1017.36 1017.47 1017.50 1017.43 1017.30
1003.07 1003.19 1003.16 1002.93 1002.49 1001.92 1001.32 1000.80 1000.49 1000.46 1000.75 1001.34 1002.16 1003.13 1004.15 1005.13 1006.02 1006.78 1007.43 1008.00 1008.53 1009.07 1009.65 1010.27 1010.93 1011.61 1012.28 1012.91 1013.49 1014.00 1014.45 1014.84 1015.20 1015.54 1015.86 1016.18 1016.47 1016.72 1016.92 1017.06 1017.12 1017.09 1016.99
1002.49 1002.73 1002.82 1002.67 1002.29 1001.72 1001.07 1000.46 1000.02 999.85 999.99 1000.46 1001.19 1002.11 1003.14 1004.16 1005.13 1005.99 1006.75 1007.41 1008.00 1008.57 1009.15 1009.75 1010.39 1011.03 1011.68 1012.30 1012.88 1013.40 1013.86 1014.27 1014.64 1014.98 1015.31 1015.61 1015.90 1016.15 1016.36 1016.52 1016.61 1016.63 1016.58
1001.92 1002.26 1002.42 1002.35 1002.01 1001.46 1000.79 1000.13 999.61 999.34 999.37 999.73 1000.39 1001.27 1002.29 1003.37 1004.41 1005.36 1006.20 1006.94 1007.59 1008.19 1008.77 1009.35 1009.94 1010.55 1011.15 1011.74 1012.29 1012.80 1013.26 1013.67 1014.04 1014.37 1014.68 1014.97 1015.24 1015.50 1015.72 1015.89 1016.02 1016.09 1016.10
1001.26 1001.63 1001.84 1001.81 1001.52 1001.01 1000.36 999.71 999.17 998.86 998.84 999.16 999.77 1000.63 1001.66 1002.76 1003.85 1004.88 1005.80 1006.61 1007.31 1007.93 1008.51 1009.07 1009.61 1010.16 1010.71 1011.24 1011.76 1012.24 1012.68 1013.07 1013.42 1013.74 1014.04 1014.32 1014.58 1014.82 1015.05 1015.25 1015.41 1015.53 1015.60
1000.38 1000.74 1000.95 1000.94 1000.70 1000.26 999.69 999.10 998.63 998.36 998.37 998.69 999.30 1000.17 1001.21 1002.33 1003.47 1004.55 1005.53 1006.39 1007.13 1007.77 1008.35 1008.88 1009.38 1009.88 1010.36 1010.84 1011.30 1011.74 1012.15 1012.51 1012.84 1013.15 1013.42 1013.69 1013.94 1014.18 1014.41 1014.63 1014.83 1014.99 1015.11
999.26 999.55 999.73 999.72 999.53 999.18 998.74 998.29 997.96 997.81 997.92 998.31 998.97 999.86 1000.92 1002.07 1003.23 1004.34 1005.35 1006.24 1007.01 1007.67 1008.25 1008.76 1009.23 1009.67 1010.11 1010.53 1010.94 1011.33 1011.69 1012.02 1012.33 1012.61 1012.87 1013.12 1013.36 1013.60 1013.84 1014.08 1014.29 1014.49 1014.64
997.95 998.13 998.23 998.22 998.08 997.85 997.58 997.33 997.20 997.24 997.51 998.02 998.76 999.70 1000.78 1001.94 1003.10 1004.22 1005.24 1006.15 1006.93 1007.60 1008.18 1008.68 1009.13 1009.54 1009.93 1010.30 1010.66 1010.99 1011.31 1011.61 1011.89 1012.15 1012.39 1012.63 1012.87 1013.11 1013.35 1013.59 1013.81 1014.02 1014.18
996.58 996.62 996.63 996.60 996.52 996.42 996.35 996.34 996.45 996.72 997.19 997.85 998.70 999.69 1000.78 1001.93 1003.08 1004.17 1005.18 1006.08 1006.88 1007.56 1008.14 1008.64 1009.08 1009.46 1009.82 1010.14 1010.45 1010.74 1011.01 1011.27 1011.52 1011.76 1011.99 1012.22 1012.45 1012.68 1012.91 1013.14 1013.36 1013.56 1013.72
995.37 995.26 995.17 995.11 995.10 995.14 995.27 995.50 995.87 996.39 997.05 997.86 998.80 999.84 1000.93 1002.05 1003.15 1004.20 1005.17 1006.06 1006.84 1007.53 1008.12 1008.63 1009.07 1009.44 1009.77 1010.05 1010.32 1010.56 1010.78 1011.00 1011.21 1011.42 1011.64 1011.86 1012.08 1012.30 1012.53 1012.74 1012.93 1013.10 1013.23
994.53 994.28 994.11 994.04 994.09 994.26 994.57 995.03 995.62 996.35 997.19 998.13 999.13 1000.18 1001.25 1002.30 1003.34 1004.32 1005.25 1006.10 1006.87 1007.55 1008.16 1008.67 1009.11 1009.48 1009.78 1010.04 1010.25 1010.44 1010.61 1010.79 1010.96 1011.14 1011.34 1011.54 1011.75 1011.96 1012.16 1012.35 1012.51 1012.64 1012.72
994.27 993.91 993.68 993.61 993.71 993.99 994.46 995.09 995.86 996.74 997.70 998.71 999.73 1000.75 1001.76 1002.73 1003.67 1004.57 1005.43 1006.24 1006.98 1007.66 1008.27 1008.79 1009.23 1009.59 1009.87 1010.09 1010.26 1010.39 1010.51 1010.63 1010.76 1010.91 1011.08 1011.26 1011.45 1011.65 1011.83 1011.98 1012.09 1012.16 1012.18
994.66 994.27 994.02 993.96 994.10 994.47 995.04 995.78 996.65 997.61 998.61 999.62 1000.61 1001.56 1002.47 1003.34 1004.17 1004.97 1005.76 1006.51 1007.22 1007.89 1008.49 1009.02 1009.45 1009.79 1010.04 1010.21 1010.33 1010.40 1010.46 1010.52 1010.60 1010.72 1010.85 1011.02 1011.19 1011.36 1011.51 1011.62 1011.68 1011.69 1011.64
995.70 995.32 995.09 995.07 995.26 995.67 996.29 997.07 997.97 998.93 999.90 1000.85 1001.75 1002.59 1003.37 1004.11 1004.83 1005.53 1006.23 1006.92 1007.60 1008.24 1008.83 1009.34 1009.75 1010.07 1010.28 1010.40 1010.46 1010.47 1010.47 1010.47 1010.51 1010.58 1010.68 1010.82 1010.97 1011.11 1011.22 1011.29 1011.29 1011.23 1011.10
997.26 996.96 996.79 996.82 997.04 997.48 998.10 998.86 999.71 1000.60 1001.48 1002.32 1003.09 1003.78 1004.43 1005.04 1005.63 1006.23 1006.84 1007.47 1008.10 1008.70 1009.26 1009.74 1010.12 1010.40 1010.57 1010.64 1010.64 1010.59 1010.53 1010.48 1010.47 1010.50 1010.57 1010.67 1010.79 1010.90 1010.98 1010.99 1010.93 1010.80 1010.58
999.16 998.98 998.91 998.99 999.25 999.68 1000.26 1000.95 1001.71 1002.48 1003.22 1003.91 1004.53 1005.08 1005.58 1006.05 1006.53 1007.03 1007.56 1008.11 1008.68 1009.24 1009.76 1010.20 1010.53 1010.77 1010.89 1010.90 1010.85 1010.75 1010.64 1010.54 1010.49 1010.48 1010.52 1010.59 1010.67 1010.74 1010.77 1010.73 1010.61 1010.39 1010.09
1001.20 1001.16 1001.20 1001.35 1001.62 1002.03 1002.54 1003.14 1003.77 1004.39 1004.98 1005.51 1005.97 1006.38 1006.74 1007.10 1007.47 1007.87 1008.32 1008.80 1009.31 1009.81 1010.27 1010.65 1010.94 1011.12 1011.19 1011.16 1011.07 1010.93 1010.78 1010.65 1010.56 1010.52 1010.53 1010.56 1010.61 1010.63 1010.61 1010.51 1010.31 1010.02 1009.62
1003.19 1003.29 1003.43 1003.63 1003.92 1004.29 1004.72 1005.21 1005.70 1006.18 1006.61 1006.99 1007.32 1007.60 1007.85 1008.11 1008.39 1008.71 1009.08 1009.49 1009.93 1010.35 1010.75 1011.07 1011.30 1011.44 1011.47 1011.41 1011.28 1011.11 1010.94 1010.78 1010.67 1010.61 1010.58 1010.58 1010.59 1010.56 1010.48 1010.31 1010.05 1009.68 1009.21
1004.98 1005.20 1005.42 1005.67 1005.95 1006.27 1006.63 1007.00 1007.37 1007.72 1008.03 1008.29 1008.50 1008.69 1008.86 1009.04 1009.25 1009.50 1009.80 1010.14 1010.50 1010.85 1011.17 1011.44 1011.61 1011.70 1011.70 1011.61 1011.47 1011.30 1011.12 1010.96 1010.83 1010.74 1010.68 1010.65 1010.60 1010.52 1010.38 1010.16 1009.83 1009.39 1008.85
1006.51 1006.81 1007.09 1007.34 1007.61 1007.88 1008.16 1008.44 1008.71 1008.96 1009.17 1009.35 1009.49 1009.62 1009.73 1009.86 1010.02 1010.22 1010.46 1010.72 1011.01 1011.29 1011.54 1011.74 1011.87 1011.92 1011.90 1011.81 1011.66 1011.49 1011.32 1011.15 1011.02 1010.91 1010.82 1010.74 1010.65 1010.52 1010.32 1010.04 1009.67 1009.18 1008.59
Thickness
5761 5761 5760 5759 5755 5751 5748 5746 5744 5741 5738 5735 5731 5727 5724 5723 5722 5720 5718 5716 5713 5710 5708 5705 5703 5700 5698 5696 5694 5691 5689 5687 5686 5684 5683 5684 5685 5687 5687 5688 5688 5688 5687
5755 5756 5756 5755 5752 5748 5745 5743 5741 5739 5736 5733 5729 5726 5723 5720 5718 5717 5714 5713 5710 5708 5705 5703 5700 5697 5694 5691 5690 5688 5685 5682 5681 5679 5676 5674 5676 5679 5681 5682 5683 5683 5683
5752 5752 5751 5749 5747 5745 5743 5742 5739 5737 5734 5731 5726 5722 5718 5716 5713 5712 5710 5709 5708 5705 5703 5700 5698 5694 5692 5689 5686 5684 5682 5678 5676 5675 5673 5668 5667 5669 5673 5675 5676 5677 5677
5751 5749 5747 5745 5744 5743 5741 5739 5736 5734 5731 5728 5724 5719 5716 5713 5711 5709 5707 5706 5704 5702 5700 5698 5695 5691 5688 5686 5683 5681 5678 5675 5671 5669 5668 5668 5667 5664 5664 5667 5669 5670 5670
5748 5746 5745 5743 5741 5739 5737 5735 5732 5729 5727 5724 5721 5717 5714 5711 5709 5706 5704 5702 5700 5699 5697 5694 5691 5688 5685 5683 5680 5677 5674 5672 5669 5666 5664 5662 5661 5661 5660 5659 5661 5663 5664
5743 5742 5741 5739 5737 5736 5734 5731 5728 5725 5723 5721 5718 5714 5711 5708 5705 5702 5700 5698 5696 5694 5692 5690 5687 5684 5681 5679 5676 5673 5671 5668 5666 5664 5662 5660 5659 5657 5656 5655 5655 5655 5657
5738 5736 5734 5734 5733 5732 5730 5728 5725 5721 5720 5718 5715 5712 5709 5707 5704 5701 5698 5694 5691 5690 5688 5686 5683 5680 5678 5675 5673 5669 5667 5665 5662 5661 5659 5659 5658 5657 5655 5652 5650 5650 5651
5733 5731 5731 5730 5730 5729 5727 5725 5722 5719 5717 5715 5713 5711 5707 5704 5702 5699 5696 5693 5689 5687 5685 5683 5680 5677 5674 5671 5668 5666 5663 5661 5659 5658 5656 5655 5655 5654 5653 5650 5648 5645 5644
5728 5727 5727 5727 5727 5725 5723 5721 5719 5716 5714 5712 5710 5707 5704 5702 5699 5696 5693 5690 5687 5684 5682 5680 5677 5674 5671 5668 5664 5661 5659 5657 5655 5654 5653 5651 5651 5650 5649 5647 5646 5643 5640
5722 5723 5722 5722 5723 5722 5719 5717 5716 5713 5711 5709 5707 5705 5702 5700 5697 5693 5690 5687 5684 5682 5680 5677 5674 5671 5668 5665 5661 5658 5656 5653 5651 5650 5648 5647 5646 5645 5644 5643 5641 5640 5638
5718 5717 5717 5718 5718 5717 5715 5713 5711 5709 5707 5706 5704 5702 5700 5697 5694 5691 5688 5686 5683 5680 5677 5675 5671 5668 5665 5662 5658 5655 5653 5650 5648 5647 5645 5644 5643 5641 5640 5638 5636 5634 5633
5714 5713 5712 5712 5711 5710 5710 5708 5706 5705 5704 5702 5700 5699 5697 5694 5691 5688 5686 5683 5681 5679 5676 5672 5669 5665 5662 5659 5655 5653 5651 5648 5646 5644 5642 5641 5640 5638 5636 5634 5633 5631 5630
5708 5707 5706 5705 5705 5704 5704 5703 5702 5700 5699 5698 5696 5694 5692 5689 5687 5685 5683 5681 5678 5676 5673 5670 5666 5663 5660 5656 5654 5651 5649 5647 5644 5642 5640 5638 5636 5635 5633 5631 5629 5628 5626
5702 5701 5699 5699 5699 5699 5698 5697 5696 5695 5694 5693 5691 5688 5686 5684 5683 5681 5678 5677 5675 5672 5669 5666 5663 5660 5657 5654 5651 5648 5646 5644 5642 5640 5638 5636 5634 5633 5631 5629 5627 5624 5622
5696 5696 5695 5694 5693 5692 5692 5692 5691 5690 5689 5687 5685 5683 5681 5679 5678 5675 5674 5672 5671 5669 5665 5662 5660 5656 5654 5652 5649 5646 5643 5641 5639 5637 5636 5634 5633 5632 5630 5628 5626 5622 5619
5691 5691 5690 5689 5688 5687 5687 5686 5686 5685 5684 5682 5680 5679 5677 5675 5673 5671 5669 5667 5666 5664 5661 5658 5656 5653 5651 5648 5646 5643 5640 5638 5636 5635 5633 5632 5631 5630 5628 5627 5625 5623 5619
5685 5685 5684 5684 5683 5683 5683 5681 5680 5679 5678 5676 5675 5673 5672 5670 5668 5666 5664 5662 5660 5659 5657 5654 5651 5649 5647 5645 5642 5640 5638 5636 5634 5632 5631 5629 5629 5628 5626 5624 5623 5621 5619
5678 5678 5677 5677 5677 5677 5677 5675 5675 5673 5672 5670 5669 5668 5666 5664 5663 5661 5659 5657 5656 5654 5652 5650 5648 5645 5644 5641 5639 5637 5635 5633 5631 5630 5629 5627 5626 5626 5624 5622 5620 5619 5618
5673 5672 5671 5671 5671 5670 5670 5669 5667 5667 5666 5664 5663 5662 5661 5659 5657 5655 5654 5653 5651 5649 5648 5646 5644 5641 5640 5638 5635 5633 5631 5629 5628 5628 5627 5625 5623 5623 5621 5619 5617 5616 5616
5666 5665 5665 5665 5664 5663 5663 5662 5661 5660 5659 5659 5657 5656 5655 5654 5652 5651 5649 5648 5646 5645 5643 5641 5640 5638 5637 5635 5632 5630 5628 5626 5625 5625 5624 5624 5622 5620 5618 5616 5615 5614 5615
5658 5659 5658 5657 5656 5656 5656 5654 5654 5652 5653 5652 5651 5650 5649 5648 5647 5646 5644 5643 5641 5640 5638 5637 5636 5634 5633 5631 5629 5627 5625 5624 5622 5622 5622 5622 5620 5618 5616 5615 5614 5614 5613
5651 5651 5649 5648 5649 5649 5648 5647 5646 5646 5645 5645 5643 5642 5642 5642 5641 5639 5638 5637 5636 5634 5632 5631 5630 5629 5628 5626 5625 5623 5622 5621 5619 5619 5619 5619 5618 5616 5614 5613 5612 5611 5609
5643 5642 5641 5640 5640 5640 5640 5638 5638 5638 5638 5637 5636 5636 5636 5635 5633 5632 5631 5630 5629 5627 5626 5625 5624 5624 5623 5622 5620 5619 5618 5617 5616 5616 5616 5615 5614 5613 5612 5611 5610 5608 5606
5633 5633 5631 5631 5630 5631 5632 5631 5631 5631 5631 5630 5629 5629 5628 5628 5626 5625 5625 5623 5622 5620 5619 5619 5618 5618 5617 5617 5616 5615 5614 5612 5612 5612 5612 5611 5610 5610 5609 5608 5607 5606 5604
5625 5624 5622 5622 5622 5622 5623 5623 5623 5624 5624 5623 5623 5622 5621 5621 5620 5619 5618 5617 5616 5614 5613 5613 5612 5611 5612 5612 5611 5610 5609 5609 5608 5606 5606 5607 5607 5606 5606 5605 5604 5603 5602
5616 5615 5615 5614 5614 5614 5615 5615 5616 5616 5616 5616 5616 5615 5614 5614 5614 5613 5612 5612 5611 5610 5609 5607 5606 5606 5606 5605 5605 5604 5604 5602 5601 5601 5602 5604 5604 5604 5604 5603 5602 5601 5600